This demonstration page uses our WeatherBlox Daily Observations layout. Learn more.

Left ArrowRight Arrow

Hourly Observations for August 19, 2021

Temp ( °F °C ) Dew Point ( °F °C ) Humidity (%) Winds ( mph kmh ) Pressure ( in mb ) Visibility ( mi km ) Precip ( " mm )
12:59 am 00:59 Mostly Clear 80 26.7 75 23.9 85 85 SSW 8 13 30.10 1019 10 16 0.00 0.00
1:59 am 01:59 Partly Cloudy 80 26.7 75 23.9 85 85 SSW 8 13 30.09 1019 10 16 0.00 0.00
2:59 am 02:59 Partly Cloudy 79 26.1 76 24.4 90 90 SSW 7 11 30.09 1019 9 14 0.00 0.00
3:45 am 03:45 Partly Cloudy 79 26.1 75 23.9 88 88 SSW 7 11 30.08 1019 9 14 0.00 0.00
3:59 am 03:59 Mostly Cloudy 79 26.1 76 24.4 90 90 SW 8 13 30.08 1019 9 14 0.00 0.00
4:59 am 04:59 Mostly Cloudy 80 26.7 76 24.4 87 87 SW 6 9 30.07 1018 8 13 0.00 0.00
5:46 am 05:46 Cloudy 79 26.1 75 23.9 88 88 SW 6 9 30.08 1019 9 14 0.00 0.00
5:59 am 05:59 Mostly Cloudy 79 26.1 75 23.9 88 88 SSW 7 11 30.08 1019 9 14 0.00 0.00
6:59 am 06:59 Mostly Cloudy 79 26.1 75 23.9 88 88 SSW 8 13 30.08 1019 9 14 0.00 0.00
7:11 am 07:11 Mostly Cloudy 79 26.1 75 23.9 88 88 SSW 7 11 30.08 1019 9 14 0.00 0.00
7:59 am 07:59 Mostly Cloudy 81 27.2 75 23.9 82 82 SSW 8 13 30.08 1019 9 14 0.00 0.00
8:59 am 08:59 Mostly Cloudy 83 28.3 75 23.9 77 77 WSW 8 13 30.07 1018 9 14 0.00 0.00
9:59 am 09:59 Mostly Sunny 84 28.9 75 23.9 74 74 SSW 7 11 30.06 1018 9 14 0.00 0.00
10:59 am 10:59 Sunny 87 30.6 75 23.9 67 67 SW 6 9 30.06 1018 10 16 0.00 0.00
11:59 am 11:59 Mostly Sunny 88 31.1 74 23.3 63 63 VRB 3 6 30.04 1017 10 16 0.00 0.00
12:59 pm 12:59 Partly Cloudy 90 32.2 73 22.8 58 58 W 12 19 30.03 1017 10 16 0.00 0.00
1:59 pm 13:59 Partly Cloudy 91 32.8 72 22.2 54 54 W 9 15 30.02 1017 10 16 0.00 0.00
2:59 pm 14:59 Partly Cloudy 91 32.8 72 22.2 54 54 W 10 17 30.01 1016 10 16 0.00 0.00
3:59 pm 15:59 Sunny 92 33.3 72 22.2 52 52 WNW 12 19 29.98 1015 10 16 0.00 0.00
4:59 pm 16:59 Sunny 93 33.9 71 21.7 49 49 WNW 10 17 29.97 1015 10 16 0.00 0.00
5:59 pm 17:59 Mostly Cloudy 91 32.8 71 21.7 52 52 W 7 11 29.96 1015 10 16 0.00 0.00
6:59 pm 18:59 Mostly Cloudy 90 32.2 72 22.2 56 56 WNW 6 9 29.96 1015 10 16 0.00 0.00
7:59 pm 19:59 Partly Cloudy 87 30.6 74 23.3 65 65 Calm 29.96 1015 9 14 0.00 0.00
8:59 pm 20:59 Partly Cloudy 83 28.3 75 23.9 77 77 Calm 29.97 1015 10 16 0.00 0.00
9:59 pm 21:59 Mostly Clear 81 27.2 75 23.9 82 82 SSE 3 6 29.98 1015 9 14 0.00 0.00
10:59 pm 22:59 Mostly Clear 83 28.3 76 24.4 79 79 S 7 11 29.98 1015 10 16 0.00 0.00
11:59 pm 23:59 Mostly Clear 82 27.8 76 24.4 82 82 SSW 6 9 29.96 1015 9 14 0.00 0.00

Powered by AerisWeather